This demonstration page uses our WeatherBlox Daily Observations layout. Learn more.

Left ArrowRight Arrow

41.86663, -103.66717

Hourly Observations for January 26, 2017

Temp ( °F °C ) Dew Point ( °F °C ) Humidity (%) Winds ( mph kmh ) Pressure ( in mb ) Visibility ( mi km ) Precip ( " mm )
12:53 am 00:53 Cloudy 20 -6.7 12 -11.1 71 71 WNW 9 15 30.22 1023 10 16 0.00 0.00
1:53 am 01:53 Cloudy 21 -6.1 11 -11.7 65 65 W 14 22 30.22 1023 10 16 0.00 0.00
2:53 am 02:53 Cloudy 20 -6.7 10 -12.2 65 65 WNW 10 17 30.23 1024 10 16 0.00 0.00
3:53 am 03:53 Cloudy 18 -7.8 9 -12.8 68 68 WNW 8 13 30.24 1024 10 16 0.00 0.00
4:53 am 04:53 Cloudy 17 -8.3 9 -12.8 70 70 WNW 7 11 30.25 1025 10 16 0.00 0.00
5:53 am 05:53 Cloudy 16 -8.9 9 -12.8 74 74 NW 8 13 30.27 1025 10 16 0.00 0.00
6:53 am 06:53 Cloudy 18 -7.8 9 -12.8 68 68 WNW 6 9 30.28 1025 10 16 0.00 0.00
7:53 am 07:53 Cloudy 19 -7.2 10 -12.2 68 68 WNW 7 11 30.29 1026 10 16 0.00 0.00
8:53 am 08:53 Cloudy 21 -6.1 11 -11.7 65 65 WNW 8 13 30.31 1027 10 16 0.00 0.00
9:53 am 09:53 Cloudy 25 -3.9 12 -11.1 58 58 WNW 13 20 30.30 1026 10 16 0.00 0.00
10:53 am 10:53 Cloudy 26 -3.3 12 -11.1 55 55 WNW 14 22 30.30 1026 10 16 0.00 0.00
11:53 am 11:53 Cloudy 28 -2.2 13 -10.6 53 53 WNW 17 28 30.29 1026 10 16 0.00 0.00
12:53 pm 12:53 Cloudy 29 -1.7 13 -10.6 51 51 W 16 26 30.27 1025 10 16 0.00 0.00
1:53 pm 13:53 Cloudy 30 -1.1 14 -10 51 51 WNW 16 26 30.26 1025 10 16 0.00 0.00
2:53 pm 14:53 Partly Cloudy 27 -2.8 13 -10.6 55 55 WNW 14 22 30.29 1026 10 16 0.00 0.00
3:53 pm 15:53 Cloudy 27 -2.8 14 -10 58 58 WNW 13 20 30.32 1027 10 16 0.00 0.00
4:53 pm 16:53 Cloudy 26 -3.3 15 -9.4 63 63 WNW 12 19 30.33 1027 10 16 0.00 0.00
5:53 pm 17:53 Cloudy 22 -5.6 13 -10.6 68 68 NW 9 15 30.36 1028 10 16 0.00 0.00
6:53 pm 18:53 Cloudy 17 -8.3 10 -12.2 74 74 NW 9 15 30.38 1029 10 16 0.00 0.00
7:53 pm 19:53 Mostly Cloudy 15 -9.4 8 -13.3 74 74 WNW 8 13 30.40 1029 10 16 0.00 0.00
8:53 pm 20:53 Cloudy 18 -7.8 8 -13.3 65 65 W 15 24 30.39 1029 10 16 0.00 0.00
9:53 pm 21:53 Clear 15 -9.4 5 -15 64 64 WNW 10 17 30.40 1029 10 16 0.00 0.00
10:53 pm 22:53 Clear 12 -11.1 3 -16.1 67 67 WNW 12 19 30.41 1030 10 16 0.00 0.00
11:53 pm 23:53 Clear 10 -12.2 2 -16.7 69 69 WNW 8 13 30.41 1030 10 16 0.00 0.00

Powered by AerisWeather